EW5835 Weather Reports


time (UTC)temp
C
wind
direction
speed
KPH
gust
KPH
rain 1hr
cm
rain 24hr
cm
rain mn
cm
humidity
%
barometer
mb
20260504100302 0 271 0.0 0.0 0.00 0.00 0.00 94 1012.9
20260504081258 0 279 0.0 0.0 0.00 0.00 0.00 92 1012.5
20260504080804 0 279 0.0 0.0 0.00 0.00 0.00 92 1012.5
20260504080800 0 279 0.0 0.0 0.00 0.00 0.00 92 1012.4
20260504080414 0 279 0.0 0.0 0.00 0.00 0.00 92 1012.5
20260504070255 0 266 0.0 0.0 0.00 0.00 0.00 91 1012.4
20260504050752 1 251 0.0 0.0 0.00 0.00 0.00 88 1012.1
20260504045751 1 238 0.0 0.0 0.00 0.00 0.00 88 1012.2
20260504045251 1 238 0.0 0.0 0.00 0.00 0.00 87 1012.2
20260504044758 2 271 0.0 0.0 0.00 0.00 0.00 87 1012.1
20260504044752 1 238 0.0 0.0 0.00 0.00 0.00 87 1012.1
20260504044251 2 238 0.0 0.0 0.00 0.00 0.00 87 1012.2
20260504043251 2 271 0.0 0.0 0.00 0.00 0.00 86 1012.1
20260504042752 2 271 0.0 0.0 0.00 0.00 0.00 86 1012.1
20260504042255 2 271 0.0 0.0 0.00 0.00 0.00 85 1012.1
20260504042249 2 271 0.0 0.0 0.00 0.00 0.00 86 1012.1
20260504041249 2 271 0.0 0.0 0.00 0.00 0.00 86 1012.1
20260504040748 2 271 0.0 0.0 0.00 0.00 0.00 85 1012.0
20260504040253 2 271 0.0 0.0 0.00 0.00 0.00 85 1012.0
20260504040248 2 271 0.0 0.0 0.00 0.00 0.00 85 1012.0
20260504035250 2 266 0.0 0.0 0.00 0.00 0.00 84 1012.0
20260504034753 2 264 0.0 0.0 0.00 0.00 0.00 83 1012.0
20260504034748 2 264 0.0 0.0 0.00 0.00 0.00 84 1012.1
20260504034403 2 264 0.0 0.0 0.00 0.00 0.00 83 1011.9
20260504033248 3 264 0.0 0.0 0.00 0.00 0.00 83 1012.0
20260504032748 3 262 0.0 0.0 0.00 0.00 0.00 83 1012.0
20260504032253 3 262 0.0 0.0 0.00 0.00 0.00 81 1012.1
20260504032248 3 262 0.0 0.0 0.00 0.00 0.00 82 1012.1
20260504031748 3 262 0.0 0.0 0.00 0.00 0.00 82 1012.0
20260504030746 3 262 0.0 0.0 0.00 0.00 0.00 81 1012.1
20260504030247 3 262 0.0 0.0 0.00 0.00 0.00 81 1012.0
20260504025747 3 266 0.0 0.0 0.00 0.00 0.00 81 1011.9
20260504025248 3 266 0.0 0.0 0.00 0.00 0.00 81 1011.9
20260504024747 3 266 0.0 0.0 0.00 0.00 0.00 79 1011.8
20260504024252 3 266 0.0 0.0 0.00 0.00 0.00 79 1011.8
20260504024247 3 266 0.0 0.0 0.00 0.00 0.00 79 1011.8
20260504023247 3 266 0.0 0.0 0.00 0.00 0.00 79 1011.9
20260504022746 4 266 0.0 0.0 0.00 0.00 0.00 78 1011.9
20260504022245 4 266 0.0 0.0 0.00 0.00 0.00 76 1011.8
20260504021746 4 266 0.0 0.0 0.00 0.00 0.00 76 1011.7
20260504021251 5 268 0.0 0.0 0.00 0.00 0.00 76 1011.6
20260504021245 4 266 0.0 0.0 0.00 0.00 0.00 76 1011.7
20260504020745 5 266 0.0 0.0 0.00 0.00 0.00 76 1011.6
20260504015745 5 258 0.0 0.0 0.00 0.00 0.00 75 1011.7
20260504015245 5 268 0.0 0.0 0.00 0.00 0.00 73 1011.6
20260504014750 5 268 0.0 0.0 0.00 0.00 0.00 71 1011.5
20260504014744 5 268 0.0 0.0 0.00 0.00 0.00 73 1011.6
20260504014245 5 268 0.0 0.0 0.00 0.00 0.00 72 1011.6
20260504013244 5 268 0.0 0.0 0.00 0.00 0.00 71 1011.6
20260504012745 6 268 0.0 0.0 0.00 0.00 0.00 71 1011.5
20260504012245 6 266 0.0 0.0 0.00 0.00 0.00 70 1011.5
20260504011744 6 274 0.0 0.0 0.00 0.00 0.00 69 1011.5
20260504011245 6 316 0.0 0.0 0.00 0.00 0.00 66 1011.3
20260504010744 6 316 0.0 0.0 0.00 0.00 0.00 66 1011.2
20260504010245 7 316 0.0 0.0 0.00 0.00 0.00 64 1011.2
20260504005744 7 316 0.0 0.0 0.00 0.00 0.00 62 1011.3
20260504005243 7 316 0.0 0.0 0.00 0.00 0.00 61 1011.2
20260504004743 8 316 0.0 0.0 0.00 0.00 0.00 59 1011.1
20260504004243 8 316 0.0 0.0 0.00 0.00 0.00 58 1011.1
20260504003743 8 316 0.0 0.0 0.00 0.00 0.00 56 1011.0
20260504003242 8 316 0.0 0.0 0.00 0.00 0.00 55 1011.0
20260504002741 8 316 0.0 0.0 0.00 0.00 0.00 54 1010.9
20260504002242 8 316 0.0 0.0 0.00 0.00 0.00 53 1010.9
20260504001741 9 316 0.0 0.0 0.00 0.00 0.00 53 1010.8
20260504001242 9 220 0.0 0.0 0.00 0.00 0.00 51 1010.6
20260504000743 9 220 0.0 0.0 0.00 0.00 0.00 50 1010.6
20260504000241 10 220 0.0 0.0 0.00 0.00 0.00 49 1010.6
20260503235743 10 220 0.0 0.0 0.00 0.00 0.00 48 1010.6
20260503235242 10 220 0.0 0.0 0.00 0.00 0.00 48 1010.5
20260503234742 10 220 0.0 0.0 0.00 0.00 0.00 47 1010.5
20260503234241 11 219 0.0 0.0 0.00 0.00 0.00 45 1010.5
20260503233745 11 266 0.0 0.0 0.00 0.00 0.00 44 1010.4
20260503233741 11 231 0.0 0.0 0.00 0.00 0.00 44 1010.4
20260503232740 11 266 0.0 0.0 0.00 0.00 0.00 43 1010.4
20260503232243 12 313 0.0 4.8 0.00 0.00 0.00 42 1010.3
20260503232239 11 348 0.0 4.8 0.00 0.00 0.00 42 1010.3
20260503231239 12 166 0.0 0.0 0.00 0.00 0.00 42 1010.2
20260503230743 12 324 0.0 0.0 0.00 0.00 0.00 41 1010.2
20260503230738 12 250 0.0 0.0 0.00 0.00 0.00 41 1010.3
20260503225740 12 180 0.0 1.6 0.00 0.00 0.00 40 1010.1
20260503225239 12 220 0.0 9.7 0.00 0.00 0.00 40 1010.1
20260503224738 12 243 1.6 9.7 0.00 0.00 0.00 40 1010.1
20260503224239 12 265 0.0 1.6 0.00 0.00 0.00 40 1010.1
20260503223745 12 244 0.0 8.0 0.00 0.00 0.00 39 1010.0
20260503223739 12 266 0.0 8.0 0.00 0.00 0.00 40 1010.0
20260503222737 12 168 0.0 1.6 0.00 0.00 0.00 38 1010.0
20260503222239 12 320 0.0 14.5 0.00 0.00 0.00 37 1009.8
20260503221739 12 329 1.6 14.5 0.00 0.00 0.00 38 1010.0
20260503221237 12 314 1.6 6.4 0.00 0.00 0.00 39 1009.9
20260503220737 12 116 0.0 0.0 0.00 0.00 0.00 37 1009.8
20260503220239 12 310 0.0 6.4 0.00 0.00 0.00 37 1009.9
20260503215737 12 13 0.0 20.9 0.00 0.00 0.00 38 1009.9
20260503215237 12 125 3.2 20.9 0.00 0.00 0.00 38 1009.8
20260503214737 12 106 0.0 0.0 0.00 0.00 0.00 36 1009.8
20260503214237 12 282 0.0 1.6 0.00 0.00 0.00 37 1009.7
20260503213736 12 138 0.0 4.8 0.00 0.00 0.00 36 1009.7
20260503213240 12 148 0.0 1.6 0.00 0.00 0.00 36 1009.7
20260503213236 12 331 0.0 4.8 0.00 0.00 0.00 36 1009.7
20260503212235 12 288 0.0 19.3 0.00 0.00 0.00 36 1009.6
20260503211736 12 333 0.0 19.3 0.00 0.00 0.00 34 1009.6
20260503211236 12 37 0.0 8.0 0.00 0.00 0.00 34 1009.6
20260503210735 12 255 0.0 16.1 0.00 0.00 0.00 34 1009.6
20260503210241 12 148 0.0 17.7 0.00 0.00 0.00 32 1009.5
20260503210235 12 20 1.6 20.9 0.00 0.00 0.00 32 1009.5
20260503205734 12 149 0.0 20.9 0.00 0.00 0.00 32 1009.6
20260503204734 12 347 3.2 11.3 0.00 0.00 0.00 33 1009.3
20260503204233 12 213 0.0 3.2 0.00 0.00 0.00 31 1009.4
20260503203736 13 343 0.0 9.7 0.00 0.00 0.00 31 1009.5
20260503203235 13 235 0.0 9.7 0.00 0.00 0.00 31 1009.5
20260503202734 13 219 0.0 14.5 0.00 0.00 0.00 31 1009.5
20260503202232 12 23 1.6 14.5 0.00 0.00 0.00 31 1009.4
20260503201733 13 138 1.6 14.5 0.00 0.00 0.00 31 1009.5
20260503201233 12 86 0.0 14.5 0.00 0.00 0.00 30 1009.5
20260503200734 12 68 0.0 9.7 0.00 0.00 0.00 31 1009.6
20260503200235 12 262 1.6 22.5 0.00 0.00 0.00 32 1009.7
20260503195733 12 264 1.6 22.5 0.00 0.00 0.00 32 1009.8
20260503195237 12 252 0.0 19.3 0.00 0.00 0.00 32 1009.8
20260503195233 12 254 1.6 17.7 0.00 0.00 0.00 33 1009.7
20260503194233 12 1 3.2 19.3 0.00 0.00 0.00 31 1009.9
20260503193733 12 285 0.0 16.1 0.00 0.00 0.00 33 1010.3
20260503193232 12 331 1.6 16.1 0.00 0.00 0.00 33 1010.0
20260503192732 12 11 0.0 4.8 0.00 0.00 0.00 35 1010.1
20260503192233 12 212 0.0 4.8 0.00 0.00 0.00 38 1010.3
20260503191730 11 141 0.0 19.3 0.00 0.00 0.00 36 1010.2
20260503191232 12 321 4.8 19.3 0.00 0.00 0.00 33 1010.4
20260503190732 12 180 1.6 16.1 0.00 0.00 0.00 33 1010.3
20260503190230 12 276 4.8 14.5 0.00 0.00 0.00 33 1010.4
20260503185730 12 188 0.0 24.1 0.00 0.00 0.00 36 1010.5
20260503185232 12 207 0.0 24.1 0.00 0.00 0.00 35 1010.4
20260503184731 12 72 0.0 9.7 0.00 0.00 0.00 40 1010.5
20260503184230 11 245 1.6 17.7 0.00 0.00 0.00 36 1010.6
20260503183735 11 99 1.6 17.7 0.00 0.00 0.00 38 1010.7
20260503183731 11 269 0.0 17.7 0.00 0.00 0.00 36 1010.5
20260503182729 12 58 4.8 17.7 0.00 0.00 0.00 37 1010.7
20260503182229 11 241 1.6 16.1 0.00 0.00 0.00 38 1010.8
20260503181730 11 186 3.2 16.1 0.00 0.00 0.00 38 1010.6
20260503181230 11 252 0.0 4.8 0.00 0.00 0.00 41 1010.9
20260503180734 11 337 1.6 14.5 0.00 0.00 0.00 38 1010.9
20260503180729 11 1 0.0 14.5 0.00 0.00 0.00 40 1010.9
20260503175729 10 237 0.0 8.0 0.00 0.00 0.00 40 1010.9
20260503175228 10 329 0.0 14.5 0.00 0.00 0.00 41 1011.0
20260503174737 10 51 3.2 29.0 0.00 0.00 0.00 37 1011.0
20260503174727 10 295 1.6 14.5 0.00 0.00 0.00 38 1011.0
20260503174228 10 248 0.0 14.5 0.00 0.00 0.00 39 1011.1
20260503173729 10 264 0.0 29.0 0.00 0.00 0.00 38 1011.0
20260503172727 11 281 0.0 16.1 0.00 0.00 0.00 41 1011.1
20260503172228 10 345 0.0 16.1 0.00 0.00 0.00 41 1011.1
20260503171726 10 223 0.0 11.3 0.00 0.00 0.00 42 1011.0
20260503171225 10 355 0.0 19.3 0.00 0.00 0.00 44 1011.1
20260503170848 9 271 0.0 14.5 0.00 0.00 0.00 43 1011.3
20260503170731 10 131 0.0 8.0 0.00 0.00 0.00 43 1011.3
20260503170727 10 240 1.6 19.3 0.00 0.00 0.00 44 1011.3
20260503150724 8 230 0.0 0.0 0.00 0.00 0.00 49 1011.8
20260503150222 8 6 0.0 3.2 0.00 0.00 0.00 47 1011.8
20260503130719 7 166 0.0 1.6 0.00 0.00 0.00 60 1012.3
20260503130223 6 123 0.0 3.2 0.00 0.00 0.00 58 1012.3
20260503110714 5 80 0.0 0.0 0.00 0.00 0.00 69 1011.7
20260503110214 5 20 0.0 0.0 0.00 0.00 0.00 72 1011.7